Theta_e
335 338 339 338 341 342 344 347 352 355 363 366 366 363 368 369 367 361 361 362 356 350 345 345 353 351 352 352 352 350 348 343 343
331 336 339 339 341 344 345 349 355 360 364 368 368 363 369 366 366 364 362 364 364 354 354 347 350 351 350 351 350 348 348 342 344
330 334 338 340 341 344 347 349 353 356 362 366 364 362 363 362 363 365 365 363 362 357 353 350 349 349 349 349 348 347 349 343 344
327 330 336 339 342 344 348 350 351 354 357 359 360 364 365 366 361 362 362 361 360 356 352 350 349 349 347 347 345 347 347 346 342
326 329 333 338 342 344 345 349 350 352 354 356 358 363 367 363 364 362 360 358 354 352 349 348 347 345 345 345 346 347 345 343 340
329 336 337 338 341 344 346 348 354 352 354 354 356 359 359 361 361 359 356 354 352 347 345 346 341 344 343 344 345 346 346 344 341
329 332 338 340 341 344 347 351 357 358 354 355 356 356 358 362 360 359 356 356 349 344 346 345 343 339 344 345 345 344 343 343 343
326 334 338 341 341 344 349 352 357 356 355 356 357 357 357 360 364 357 355 358 352 349 347 344 343 341 342 344 342 340 343 343 341
326 332 338 341 343 345 349 351 354 355 355 356 358 357 358 361 359 354 357 355 352 348 348 346 345 343 342 343 339 330 332 340 341
327 329 337 340 343 346 349 351 355 354 356 357 358 359 360 360 358 354 353 352 349 349 344 341 345 343 343 342 343 327 328 332 340
329 331 333 340 342 345 349 351 353 354 356 358 359 360 359 359 356 353 352 352 349 347 341 343 342 343 344 344 341 326 325 329 339
333 334 337 340 344 346 349 349 352 353 354 356 357 357 358 357 354 352 350 349 349 346 343 342 342 342 343 344 344 323 322 328 339
331 333 338 342 343 344 347 349 351 352 353 355 354 356 356 356 355 353 350 348 348 347 344 340 340 341 345 336 344 318 318 328 338
335 337 341 343 344 344 348 351 353 352 353 353 356 356 356 355 355 352 350 349 347 345 343 342 342 342 343 343 342 340 315 317 334
338 340 342 345 346 347 348 352 354 353 353 356 358 357 355 353 352 348 346 345 342 343 340 338 340 342 342 343 346 325 314 313 315
339 341 342 344 346 347 351 354 354 352 354 357 356 355 352 349 346 346 345 342 341 338 339 338 338 341 339 339 337 332 313 310 311
337 339 340 342 344 346 348 351 353 351 352 354 351 349 346 344 342 340 342 341 341 339 338 336 336 339 335 333 332 328 329 326 316
339 340 343 345 346 347 348 350 349 351 350 351 346 346 345 340 339 337 331 324 321 333 325 323 337 332 333 330 330 330 317 318 329
340 339 343 343 344 345 344 346 345 345 349 348 346 343 342 340 340 339 338 333 324 299 300 299 301 303 322 314 306 301 300 301 298
333 342 342 341 341 343 345 343 343 346 344 345 344 342 340 337 334 336 334 332 330 326 310 298 296 296 298 300 299 296 296 295 294
Wind_Speed
17 23 23 24 25 23 23 23 22 20 18 19 20 19 18 15 16 11 11 11 8 7 6 6 8 8 7 7 7 6 5 6 6
15 20 24 26 26 25 24 23 22 21 20 19 20 20 15 16 14 15 11 10 10 8 7 6 7 9 8 8 8 7 7 7 6
17 18 21 23 25 26 24 24 22 22 21 21 20 20 18 16 16 15 13 12 12 10 10 10 11 10 9 9 8 8 9 7 7
13 14 18 21 22 24 24 22 22 22 22 22 20 19 18 16 16 17 14 14 14 14 11 10 10 12 8 8 10 10 10 9 8
10 9 11 17 20 22 23 24 22 22 22 21 22 20 18 19 17 17 17 16 15 14 14 13 11 7 7 12 13 11 10 11 9
10 7 10 13 17 20 21 22 20 22 21 22 21 18 19 18 18 18 19 18 16 15 14 14 11 13 12 10 12 12 12 12 9
14 10 10 13 15 19 20 19 18 19 20 19 18 19 19 17 18 19 20 18 19 17 17 17 17 14 12 13 14 13 14 13 12
15 9 13 15 17 17 18 19 17 17 17 16 16 17 17 17 15 17 18 17 18 17 19 17 13 8 10 12 13 12 14 13 11
18 14 15 16 17 18 20 20 18 16 16 16 15 16 17 15 16 17 18 19 18 16 17 15 12 12 12 14 11 12 12 12 12
19 18 16 15 19 19 17 17 16 16 16 16 16 16 15 16 16 16 18 18 18 17 18 15 12 11 13 14 14 10 14 15 13
18 18 18 14 14 15 16 16 17 16 16 16 16 15 16 15 16 16 16 17 19 18 17 16 13 13 12 13 12 12 13 10 11
18 16 14 12 13 15 16 17 17 17 17 16 15 15 14 15 14 14 15 17 17 16 15 14 12 11 13 11 15 11 17 15 12
14 9 10 11 14 15 17 17 18 18 17 15 15 15 14 13 12 12 12 12 12 13 14 12 12 12 11 10 14 14 16 14 8
6 6 8 11 13 13 14 15 16 16 16 14 13 12 12 11 12 13 10 12 10 11 12 9 12 12 8 11 11 12 15 12 9
14 14 15 16 15 14 14 15 14 14 14 12 12 12 12 10 8 6 6 9 9 9 8 8 10 10 8 6 10 10 13 14 6
17 15 15 16 16 16 13 14 13 13 13 12 12 12 11 10 9 8 5 7 8 7 7 6 6 6 6 6 4 6 8 7 5
17 15 15 15 16 16 14 11 11 13 11 11 11 10 9 8 8 9 5 4 4 4 4 4 4 5 5 3 3 3 4 5 6
12 15 14 13 12 13 13 12 12 12 13 13 11 11 11 9 9 9 7 7 5 1 6 3 5 6 5 5 7 5 5 4 7
12 11 12 12 12 11 11 11 12 11 11 11 11 12 9 9 9 9 8 8 7 12 9 5 5 5 2 3 9 9 11 11 11
11 11 12 11 12 10 11 13 11 10 7 14 12 9 9 8 6 6 7 6 6 8 7 10 12 10 11 12 11 10 9 9 8
Wind_Direction
198 209 208 208 203 204 202 205 203 205 199 203 202 203 207 207 211 214 214 208 232 211 211 204 157 196 201 211 193 193 190 222 244
223 204 209 208 205 204 203 204 204 201 200 201 202 201 202 206 205 216 209 214 206 202 194 183 189 193 199 214 208 200 197 234 223
222 215 210 211 209 204 203 203 204 203 200 201 200 203 202 206 202 202 204 195 200 197 180 185 179 191 188 198 207 205 216 233 218
228 224 212 211 208 209 200 204 202 203 203 203 202 201 198 200 199 196 191 199 195 182 187 173 178 177 176 201 213 208 220 243 257
284 255 231 211 205 204 201 202 205 200 205 203 204 201 195 196 192 189 194 193 186 182 170 178 175 200 165 194 211 220 219 231 242
263 244 243 221 202 196 200 200 203 203 203 206 205 200 200 199 194 192 193 194 178 177 168 174 180 183 190 209 205 212 217 225 230
268 260 230 204 199 194 197 200 198 203 206 206 203 198 202 198 192 195 200 186 179 179 177 182 198 202 181 193 197 208 219 214 220
268 247 219 199 196 197 193 196 198 201 205 203 203 201 199 199 197 203 206 193 184 183 184 189 206 193 195 201 214 210 215 221 219
251 245 223 204 199 198 196 196 195 191 194 196 198 194 200 192 192 202 206 199 196 189 192 192 193 187 205 215 216 203 195 212 222
243 245 227 207 204 201 195 190 187 185 184 184 186 195 189 193 195 202 209 202 200 194 199 201 209 202 214 221 227 202 193 203 225
240 239 243 212 202 197 190 184 175 175 176 180 183 185 190 191 192 203 203 205 201 202 206 211 212 211 227 240 237 196 206 182 221
239 244 241 221 195 181 180 175 169 169 169 170 176 186 190 186 193 201 200 203 205 209 205 210 211 219 229 234 240 174 168 178 207
229 233 218 192 179 168 175 171 162 162 162 164 173 182 185 183 186 198 201 209 215 200 207 214 219 211 216 222 239 170 174 190 204
146 158 156 153 152 159 157 151 150 151 152 164 169 166 160 166 180 187 187 195 209 201 209 219 215 229 234 229 226 205 181 202 192
120 125 126 122 118 127 135 137 145 139 141 142 150 150 152 160 162 176 191 183 202 202 193 215 237 232 235 236 235 209 186 188 223
114 115 118 119 119 116 116 126 135 135 139 146 148 141 139 146 148 162 161 181 188 195 198 211 226 229 227 231 190 158 132 171 171
107 100 99 106 108 107 105 103 98 110 117 121 126 123 131 131 140 113 151 188 201 209 184 207 227 226 211 172 160 97 183 156 166
83 89 86 81 84 94 97 97 101 112 119 125 116 132 130 115 104 108 100 80 16 3 69 18 247 174 179 187 190 180 125 204 187
57 65 82 87 89 88 92 95 99 116 126 119 127 120 134 140 144 162 164 156 132 54 38 20 31 37 37 63 78 103 82 65 58
49 63 80 85 87 113 122 117 121 116 145 131 111 126 130 138 153 154 152 159 164 150 101 75 54 45 52 62 100 88 98 108 117